Time,TemperatureF,DewpointF,PressureIn,WindDirection,WindDirectionDegrees,WindSpeedMPH,WindSpeedGustMPH,Humidity,HourlyPrecipIn,Conditions,Clouds,dailyrainin,SoftwareType,DateUTC
2013-03-18 00:00:00,36.0,32.8,28.53,NNW,348,0.0,0.0,88,0.00,,---,0.00,VWS V14.01,2013-03-18 07:00:00,
2013-03-18 00:05:00,36.0,32.8,28.53,NNW,348,0.0,0.0,88,0.00,,---,0.00,VWS V14.01,2013-03-18 07:05:00,
2013-03-18 00:10:00,35.8,32.6,28.53,NNW,348,0.0,0.0,88,0.00,,---,0.00,VWS V14.01,2013-03-18 07:10:00,
2013-03-18 00:15:00,35.8,32.6,28.53,NNW,348,0.0,0.0,88,0.00,,---,0.00,VWS V14.01,2013-03-18 07:15:00,
2013-03-18 00:20:00,35.4,32.2,28.53,NNW,348,0.0,0.0,88,0.00,,---,0.00,VWS V14.01,2013-03-18 07:20:00,
2013-03-18 00:25:00,35.6,32.4,28.53,NNW,348,0.0,0.0,88,0.00,,---,0.00,VWS V14.01,2013-03-18 07:25:00,
2013-03-18 00:30:00,35.2,32.0,28.53,NNW,348,0.0,0.0,88,0.00,,---,0.00,VWS V14.01,2013-03-18 07:30:00,
2013-03-18 00:35:00,35.2,32.3,28.53,NNW,348,0.0,0.0,89,0.00,,---,0.00,VWS V14.01,2013-03-18 07:35:00,
2013-03-18 00:40:00,35.2,32.3,28.53,NNW,348,0.0,0.0,89,0.00,,---,0.00,VWS V14.01,2013-03-18 07:40:00,
2013-03-18 00:45:00,35.4,32.5,28.53,NNW,348,0.0,0.0,89,0.00,,---,0.00,VWS V14.01,2013-03-18 07:45:00,
2013-03-18 00:50:00,35.2,32.3,28.53,NNW,348,0.0,0.0,89,0.00,,---,0.00,VWS V14.01,2013-03-18 07:50:00,
2013-03-18 00:55:00,35.4,32.5,28.53,NNW,348,0.0,0.0,89,0.00,,---,0.00,VWS V14.01,2013-03-18 07:55:00,
2013-03-18 01:00:00,35.4,32.5,28.53,NNW,348,0.0,0.0,89,0.00,,---,0.00,VWS V14.01,2013-03-18 08:00:00,
2013-03-18 01:05:00,35.4,32.5,28.53,NNW,348,0.0,0.0,89,0.00,,---,0.00,VWS V14.01,2013-03-18 08:05:00,
2013-03-18 01:10:00,35.4,32.5,28.53,NNW,348,0.0,0.0,89,0.00,,---,0.00,VWS V14.01,2013-03-18 08:10:00,
2013-03-18 01:15:00,35.4,32.5,28.53,NNW,348,0.0,0.0,89,0.00,,---,0.00,VWS V14.01,2013-03-18 08:15:00,
2013-03-18 01:20:00,35.4,32.5,28.53,NNW,348,0.0,0.0,89,0.00,,---,0.00,VWS V14.01,2013-03-18 08:20:00,
2013-03-18 01:25:00,35.4,32.8,28.53,NNW,348,0.0,0.0,90,0.00,,---,0.00,VWS V14.01,2013-03-18 08:25:00,
2013-03-18 01:30:00,35.4,32.8,28.53,NNW,342,2.7,3.6,90,0.00,,---,0.00,VWS V14.01,2013-03-18 08:30:00,
2013-03-18 01:35:00,35.4,32.8,28.53,NNW,342,0.0,0.0,90,0.00,,---,0.00,VWS V14.01,2013-03-18 08:35:00,
2013-03-18 01:40:00,35.4,32.5,28.53,NNW,342,0.0,0.0,89,0.00,,---,0.00,VWS V14.01,2013-03-18 08:40:00,
2013-03-18 01:45:00,35.1,32.2,28.53,NNW,342,0.0,0.0,89,0.00,,---,0.00,VWS V14.01,2013-03-18 08:45:00,
2013-03-18 01:50:00,35.2,32.3,28.53,NNW,342,0.0,0.0,89,0.00,,---,0.00,VWS V14.01,2013-03-18 08:50:00,
2013-03-18 01:55:00,35.4,32.5,28.53,NNW,342,0.0,0.0,89,0.00,,---,0.00,VWS V14.01,2013-03-18 08:55:00,
2013-03-18 02:00:00,35.4,32.8,28.53,NNW,342,0.0,0.0,90,0.00,,---,0.00,VWS V14.01,2013-03-18 09:00:00,
2013-03-18 02:05:00,35.2,32.6,28.53,NNW,344,0.0,4.9,90,0.00,,---,0.00,VWS V14.01,2013-03-18 09:05:00,
2013-03-18 02:10:00,35.2,32.6,28.53,NNW,343,4.0,4.0,90,0.00,,---,0.00,VWS V14.01,2013-03-18 09:10:00,
2013-03-18 02:15:00,35.2,32.6,28.53,NNW,344,0.0,0.0,90,0.00,,---,0.00,VWS V14.01,2013-03-18 09:15:00,
2013-03-18 02:20:00,35.4,32.8,28.53,NNW,344,0.0,0.0,90,0.00,,---,0.00,VWS V14.01,2013-03-18 09:20:00,
2013-03-18 02:25:00,35.4,32.8,28.53,NNW,344,0.0,0.0,90,0.00,,---,0.00,VWS V14.01,2013-03-18 09:25:00,
2013-03-18 02:30:00,35.4,32.8,28.53,NNW,344,0.0,0.0,90,0.00,,---,0.00,VWS V14.01,2013-03-18 09:30:00,
2013-03-18 02:35:00,35.4,32.8,28.53,NNW,345,0.0,0.0,90,0.00,,---,0.00,VWS V14.01,2013-03-18 09:35:00,
2013-03-18 02:40:00,35.4,32.8,28.53,NNW,344,0.0,0.0,90,0.00,,---,0.00,VWS V14.01,2013-03-18 09:40:00,
2013-03-18 02:45:00,35.2,32.6,28.53,NNW,344,0.0,0.0,90,0.00,,---,0.00,VWS V14.01,2013-03-18 09:45:00,
2013-03-18 02:50:00,35.1,32.4,28.53,NNW,344,0.0,0.0,90,0.00,,---,0.00,VWS V14.01,2013-03-18 09:50:00,
2013-03-18 02:55:00,34.9,32.2,28.53,NNW,344,0.0,0.0,90,0.00,,---,0.00,VWS V14.01,2013-03-18 09:55:00,
2013-03-18 03:00:00,34.9,32.2,28.53,NNW,344,0.0,0.0,90,0.00,,---,0.00,VWS V14.01,2013-03-18 10:00:00,
2013-03-18 03:05:00,34.7,32.1,28.53,NNW,344,0.0,0.0,90,0.00,,---,0.00,VWS V14.01,2013-03-18 10:05:00,
2013-03-18 03:10:00,34.9,32.2,28.53,NNW,344,0.0,0.0,90,0.00,,---,0.00,VWS V14.01,2013-03-18 10:10:00,
2013-03-18 03:15:00,35.1,32.7,28.53,NNW,344,0.0,0.0,91,0.00,,---,0.00,VWS V14.01,2013-03-18 10:15:00,
2013-03-18 03:20:00,35.1,32.7,28.53,NNW,344,0.0,0.0,91,0.00,,---,0.00,VWS V14.01,2013-03-18 10:20:00,
2013-03-18 03:25:00,34.9,32.5,28.53,NNW,344,0.0,0.0,91,0.00,,---,0.00,VWS V14.01,2013-03-18 10:25:00,
2013-03-18 03:30:00,34.9,32.5,28.53,NNW,344,0.0,0.0,91,0.00,,---,0.00,VWS V14.01,2013-03-18 10:30:00,
2013-03-18 03:35:00,35.1,32.7,28.53,NNW,344,0.0,0.0,91,0.00,,---,0.00,VWS V14.01,2013-03-18 10:35:00,
2013-03-18 03:40:00,34.9,32.5,28.53,NNW,344,0.0,0.0,91,0.00,,---,0.00,VWS V14.01,2013-03-18 10:40:00,
2013-03-18 03:45:00,35.1,32.7,28.53,NNW,345,0.0,0.0,91,0.00,,---,0.00,VWS V14.01,2013-03-18 10:45:00,
2013-03-18 03:50:00,35.1,32.7,28.53,NNW,344,0.0,0.0,91,0.00,,---,0.00,VWS V14.01,2013-03-18 10:50:00,
2013-03-18 03:55:00,35.1,32.7,28.53,NNW,344,0.0,0.0,91,0.00,,---,0.00,VWS V14.01,2013-03-18 10:55:00,
2013-03-18 04:00:00,35.1,32.7,28.53,NNW,344,0.0,0.0,91,0.00,,---,0.00,VWS V14.01,2013-03-18 11:00:00,
2013-03-18 04:05:00,35.1,32.7,28.53,NNW,343,0.0,0.0,91,0.00,,---,0.00,VWS V14.01,2013-03-18 11:05:00,
2013-03-18 04:10:00,34.9,32.5,28.53,NNW,344,0.0,0.0,91,0.00,,---,0.00,VWS V14.01,2013-03-18 11:10:00,
2013-03-18 04:15:00,35.1,32.7,28.53,NNW,344,0.0,0.0,91,0.00,,---,0.00,VWS V14.01,2013-03-18 11:15:00,
2013-03-18 04:20:00,35.1,32.7,28.53,NNW,344,0.0,0.0,91,0.00,,---,0.00,VWS V14.01,2013-03-18 11:20:00,
2013-03-18 04:25:00,35.1,32.7,28.53,NNW,344,0.0,0.0,91,0.00,,---,0.00,VWS V14.01,2013-03-18 11:25:00,
2013-03-18 04:30:00,35.2,33.2,28.53,NNW,344,0.0,0.0,92,0.00,,---,0.00,VWS V14.01,2013-03-18 11:30:00,
2013-03-18 04:35:00,35.2,33.2,28.53,NNW,344,0.0,0.0,92,0.00,,---,0.00,VWS V14.01,2013-03-18 11:35:00,
2013-03-18 04:40:00,35.2,33.2,28.53,NNW,344,0.0,0.0,92,0.00,,---,0.00,VWS V14.01,2013-03-18 11:40:00,
2013-03-18 04:45:00,35.4,33.3,28.53,NNW,344,0.0,0.0,92,0.00,,---,0.00,VWS V14.01,2013-03-18 11:45:00,
2013-03-18 04:50:00,35.2,33.2,28.53,NNW,344,0.0,3.1,92,0.00,,---,0.00,VWS V14.01,2013-03-18 11:50:00,
2013-03-18 04:55:00,35.4,33.3,28.53,NNW,344,0.0,0.0,92,0.00,,---,0.00,VWS V14.01,2013-03-18 11:55:00,
2013-03-18 05:00:00,35.2,33.2,28.53,NNW,343,0.0,0.0,92,0.00,,---,0.00,VWS V14.01,2013-03-18 12:00:00,
2013-03-18 05:05:00,35.2,33.2,28.53,NNW,343,0.0,0.0,92,0.00,,---,0.00,VWS V14.01,2013-03-18 12:05:00,
2013-03-18 05:10:00,35.4,33.3,28.53,NNW,344,0.0,0.0,92,0.00,,---,0.00,VWS V14.01,2013-03-18 12:10:00,
2013-03-18 05:15:00,35.2,33.2,28.53,NNW,344,0.0,0.0,92,0.00,,---,0.00,VWS V14.01,2013-03-18 12:15:00,
2013-03-18 05:20:00,35.2,33.2,28.53,SE,133,0.0,0.0,92,0.00,,---,0.00,VWS V14.01,2013-03-18 12:20:00,
2013-03-18 05:25:00,35.1,33.0,28.53,East,81,3.1,5.4,92,0.00,,---,0.00,VWS V14.01,2013-03-18 12:25:00,
2013-03-18 05:30:00,35.1,33.0,28.53,SSE,155,2.2,7.2,92,0.00,,---,0.00,VWS V14.01,2013-03-18 12:30:00,
2013-03-18 05:35:00,35.2,33.4,28.53,East,82,0.0,0.0,93,0.00,,---,0.00,VWS V14.01,2013-03-18 12:35:00,
2013-03-18 05:40:00,35.1,33.2,28.53,SSE,147,0.0,4.9,93,0.00,,---,0.00,VWS V14.01,2013-03-18 12:40:00,
2013-03-18 05:45:00,35.1,33.2,28.53,ENE,78,0.0,3.6,93,0.00,,---,0.00,VWS V14.01,2013-03-18 12:45:00,
2013-03-18 05:50:00,35.2,33.4,28.53,ESE,110,0.0,2.7,93,0.00,,---,0.00,VWS V14.01,2013-03-18 12:50:00,
2013-03-18 05:55:00,35.4,33.6,28.53,SSW,197,0.0,0.0,93,0.00,,---,0.00,VWS V14.01,2013-03-18 12:55:00,
2013-03-18 06:00:00,35.4,33.6,28.53,WNW,284,0.0,0.0,93,0.00,,---,0.00,VWS V14.01,2013-03-18 13:00:00,
2013-03-18 06:05:00,35.4,33.6,28.53,SW,221,0.0,3.1,93,0.00,,---,0.00,VWS V14.01,2013-03-18 13:05:00,
2013-03-18 06:10:00,35.4,33.6,28.53,South,174,0.0,6.3,93,0.00,,---,0.00,VWS V14.01,2013-03-18 13:10:00,
2013-03-18 06:15:00,35.2,33.4,28.53,SSE,156,0.0,4.0,93,0.00,,---,0.00,VWS V14.01,2013-03-18 13:15:00,
2013-03-18 06:20:00,35.2,33.4,28.53,SSW,212,0.0,2.7,93,0.00,,---,0.00,VWS V14.01,2013-03-18 13:20:00,
2013-03-18 06:25:00,35.2,33.4,28.53,ENE,68,2.7,4.0,93,0.00,,---,0.00,VWS V14.01,2013-03-18 13:25:00,
2013-03-18 06:30:00,35.2,33.4,28.53,ESE,106,0.0,2.7,93,0.00,,---,0.00,VWS V14.01,2013-03-18 13:30:00,
2013-03-18 06:35:00,35.4,33.6,28.53,ENE,73,0.0,0.0,93,0.00,,---,0.00,VWS V14.01,2013-03-18 13:35:00,
2013-03-18 06:40:00,35.4,33.6,28.53,WSW,237,4.0,4.0,93,0.00,,---,0.00,VWS V14.01,2013-03-18 13:40:00,
2013-03-18 06:45:00,35.2,33.4,28.53,South,180,2.7,6.3,93,0.00,,---,0.00,VWS V14.01,2013-03-18 13:45:00,
2013-03-18 06:50:00,35.4,33.6,28.53,South,180,0.0,0.0,93,0.00,,---,0.00,VWS V14.01,2013-03-18 13:50:00,
2013-03-18 06:55:00,35.4,33.6,28.53,East,94,4.0,6.3,93,0.00,,---,0.00,VWS V14.01,2013-03-18 13:55:00,
2013-03-18 07:00:00,35.2,33.4,28.53,SSE,154,0.0,5.8,93,0.00,,---,0.00,VWS V14.01,2013-03-18 14:00:00,
2013-03-18 07:05:00,35.4,33.6,28.53,East,100,3.1,5.4,93,0.00,,---,0.00,VWS V14.01,2013-03-18 14:05:00,
2013-03-18 07:10:00,35.4,33.6,28.53,SSE,163,0.0,0.0,93,0.00,,---,0.00,VWS V14.01,2013-03-18 14:10:00,
2013-03-18 07:15:00,35.4,33.9,28.53,SE,124,0.0,4.0,94,0.00,,---,0.00,VWS V14.01,2013-03-18 14:15:00,
2013-03-18 07:20:00,35.4,33.9,28.53,SSE,163,0.0,5.8,94,0.00,,---,0.00,VWS V14.01,2013-03-18 14:20:00,
2013-03-18 07:25:00,35.4,33.9,28.53,SSE,162,0.0,3.6,94,0.00,,---,0.00,VWS V14.01,2013-03-18 14:25:00,
2013-03-18 07:30:00,35.4,33.9,28.53,SE,146,2.2,5.8,94,0.00,,---,0.00,VWS V14.01,2013-03-18 14:30:00,
2013-03-18 07:35:00,35.4,33.9,28.53,SSW,194,6.3,6.7,94,0.00,,---,0.00,VWS V14.01,2013-03-18 14:35:00,
2013-03-18 07:40:00,35.4,33.9,28.53,SSW,213,0.0,3.6,94,0.00,,---,0.00,VWS V14.01,2013-03-18 14:40:00,
2013-03-18 07:45:00,35.6,33.8,28.53,SSW,213,0.0,0.0,93,0.00,,---,0.00,VWS V14.01,2013-03-18 14:45:00,
2013-03-18 07:50:00,35.6,33.8,28.53,SSW,211,0.0,3.1,93,0.00,,---,0.00,VWS V14.01,2013-03-18 14:50:00,
2013-03-18 07:55:00,35.6,33.8,28.53,East,83,0.0,6.3,93,0.00,,---,0.00,VWS V14.01,2013-03-18 14:55:00,
2013-03-18 08:00:00,35.8,34.0,28.53,SE,134,0.0,0.0,93,0.00,,---,0.00,VWS V14.01,2013-03-18 15:00:00,
2013-03-18 08:05:00,35.8,34.2,28.53,SE,134,0.0,0.0,94,0.00,,---,0.00,VWS V14.01,2013-03-18 15:05:00,
2013-03-18 08:10:00,36.1,34.6,28.53,SE,134,0.0,0.0,94,0.00,,---,0.00,VWS V14.01,2013-03-18 15:10:00,
2013-03-18 08:15:00,36.1,34.6,28.53,ENE,70,3.6,4.0,94,0.00,,---,0.00,VWS V14.01,2013-03-18 15:15:00,
2013-03-18 08:20:00,36.1,34.6,28.53,ENE,67,0.0,0.0,94,0.00,,---,0.00,VWS V14.01,2013-03-18 15:20:00,
2013-03-18 08:25:00,36.3,34.5,28.53,ENE,62,0.0,4.9,93,0.00,,---,0.00,VWS V14.01,2013-03-18 15:25:00,
2013-03-18 08:30:00,36.3,34.5,28.53,SSE,151,2.7,5.8,93,0.00,,---,0.00,VWS V14.01,2013-03-18 15:30:00,
2013-03-18 08:35:00,36.3,34.5,28.53,SSE,150,0.0,0.0,93,0.00,,---,0.00,VWS V14.01,2013-03-18 15:35:00,
2013-03-18 08:40:00,36.3,34.5,28.53,East,96,0.0,3.1,93,0.00,,---,0.00,VWS V14.01,2013-03-18 15:40:00,
2013-03-18 08:45:00,36.7,34.8,28.53,SSE,150,0.0,4.0,93,0.00,,---,0.00,VWS V14.01,2013-03-18 15:45:00,
2013-03-18 08:50:00,36.9,35.0,28.53,SSE,150,0.0,2.7,93,0.00,,---,0.00,VWS V14.01,2013-03-18 15:50:00,
2013-03-18 08:55:00,36.9,35.0,28.53,South,170,3.6,3.6,93,0.00,,---,0.00,VWS V14.01,2013-03-18 15:55:00,
2013-03-18 09:00:00,37.0,35.2,28.53,South,170,0.0,0.0,93,0.00,,---,0.00,VWS V14.01,2013-03-18 16:00:00,
2013-03-18 09:05:00,37.4,35.6,28.53,ENE,66,0.0,0.0,93,0.04,,---,0.04,VWS V14.01,2013-03-18 16:05:00,
2013-03-18 09:10:00,37.4,35.6,28.53,SE,129,0.0,3.1,93,0.04,,---,0.04,VWS V14.01,2013-03-18 16:10:00,
2013-03-18 09:15:00,37.6,35.5,28.53,SE,135,0.0,3.6,92,0.04,,---,0.04,VWS V14.01,2013-03-18 16:15:00,
2013-03-18 09:20:00,37.6,35.5,28.53,North,11,0.0,3.6,92,0.04,,---,0.04,VWS V14.01,2013-03-18 16:20:00,
2013-03-18 09:25:00,37.8,35.7,28.53,South,174,2.7,4.0,92,0.04,,---,0.04,VWS V14.01,2013-03-18 16:25:00,
2013-03-18 09:30:00,37.6,35.2,28.53,ESE,108,0.0,4.0,91,0.04,,---,0.04,VWS V14.01,2013-03-18 16:30:00,
2013-03-18 09:35:00,37.9,35.5,28.53,ESE,108,0.0,0.0,91,0.04,,---,0.04,VWS V14.01,2013-03-18 16:35:00,
2013-03-18 09:40:00,38.3,35.9,28.53,ESE,108,0.0,0.0,91,0.04,,---,0.04,VWS V14.01,2013-03-18 16:40:00,
2013-03-18 09:45:00,38.5,36.1,28.53,ESE,108,0.0,0.0,91,0.08,,---,0.08,VWS V14.01,2013-03-18 16:45:00,
2013-03-18 09:50:00,38.7,36.0,28.53,SW,220,0.0,0.0,90,0.08,,---,0.08,VWS V14.01,2013-03-18 16:50:00,
2013-03-18 09:55:00,39.2,36.2,28.53,SW,217,0.0,0.0,89,0.08,,---,0.08,VWS V14.01,2013-03-18 16:55:00,
2013-03-18 10:00:00,39.6,36.6,28.53,SSW,206,3.6,3.6,89,0.08,,---,0.08,VWS V14.01,2013-03-18 17:00:00,
2013-03-18 10:05:00,39.6,36.3,28.53,East,95,0.0,0.0,88,0.08,,---,0.08,VWS V14.01,2013-03-18 17:05:00,
2013-03-18 10:10:00,39.7,36.2,28.53,SSE,167,4.0,4.9,87,0.08,,---,0.08,VWS V14.01,2013-03-18 17:10:00,
2013-03-18 10:15:00,39.6,36.0,28.53,SSE,167,4.9,5.4,87,0.04,,---,0.08,VWS V14.01,2013-03-18 17:15:00,
2013-03-18 10:20:00,39.7,36.2,28.53,SSE,167,0.0,3.1,87,0.08,,---,0.12,VWS V14.01,2013-03-18 17:20:00,
2013-03-18 10:25:00,40.1,36.5,28.53,SSE,167,0.0,0.0,87,0.08,,---,0.12,VWS V14.01,2013-03-18 17:25:00,
2013-03-18 10:30:00,41.0,37.4,28.53,SSE,167,0.0,0.0,87,0.08,,---,0.12,VWS V14.01,2013-03-18 17:30:00,
2013-03-18 10:35:00,41.7,38.1,28.53,SE,131,4.0,5.4,87,0.08,,---,0.12,VWS V14.01,2013-03-18 17:35:00,
2013-03-18 10:40:00,41.7,37.5,28.53,SSE,148,3.6,5.8,85,0.08,,---,0.12,VWS V14.01,2013-03-18 17:40:00,
2013-03-18 10:45:00,41.5,37.1,28.53,SSE,148,0.0,0.0,84,0.08,,---,0.12,VWS V14.01,2013-03-18 17:45:00,
2013-03-18 10:49:00,42.1,37.6,28.53,SSE,148,0.0,0.0,84,0.08,,---,0.12,VWS V14.01,2013-03-18 17:49:00,
2013-03-18 10:54:00,42.1,37.0,28.53,SSE,148,0.0,0.0,82,0.04,,---,0.12,VWS V14.01,2013-03-18 17:54:00,
2013-03-18 10:59:00,42.8,37.7,28.56,SSE,149,0.0,0.0,82,0.04,,---,0.12,VWS V14.01,2013-03-18 17:59:00,
2013-03-18 11:04:00,42.8,36.8,28.56,SE,146,4.0,8.1,79,0.04,,---,0.12,VWS V14.01,2013-03-18 18:04:00,
2013-03-18 11:09:00,43.0,37.2,28.56,SE,141,0.0,4.0,80,0.04,,---,0.12,VWS V14.01,2013-03-18 18:09:00,
2013-03-18 11:14:00,43.2,37.1,28.56,SSE,151,0.0,3.6,79,0.04,,---,0.12,VWS V14.01,2013-03-18 18:14:00,
2013-03-18 11:19:00,43.7,38.0,28.56,SE,142,0.0,5.4,80,0.04,,---,0.12,VWS V14.01,2013-03-18 18:19:00,
2013-03-18 11:24:00,44.1,38.0,28.56,SSE,156,3.6,3.6,79,0.00,,---,0.12,VWS V14.01,2013-03-18 18:24:00,
2013-03-18 11:29:00,44.2,37.8,28.56,SSE,157,3.6,3.6,78,0.00,,---,0.12,VWS V14.01,2013-03-18 18:29:00,
2013-03-18 11:34:00,44.6,37.5,28.56,ESE,102,3.6,5.8,76,0.00,,---,0.12,VWS V14.01,2013-03-18 18:34:00,
2013-03-18 11:39:00,45.0,38.2,28.56,WSW,251,2.7,3.1,77,0.00,,---,0.12,VWS V14.01,2013-03-18 18:39:00,
2013-03-18 11:44:00,45.5,38.7,28.56,South,183,0.0,4.9,77,0.00,,---,0.12,VWS V14.01,2013-03-18 18:44:00,
2013-03-18 11:49:00,45.7,38.2,28.56,South,173,0.0,6.3,75,0.00,,---,0.12,VWS V14.01,2013-03-18 18:49:00,
2013-03-18 11:54:00,46.4,38.9,28.56,South,172,3.6,5.4,75,0.00,,---,0.12,VWS V14.01,2013-03-18 18:54:00,
2013-03-18 11:59:00,46.6,38.4,28.56,South,171,0.0,0.0,73,0.00,,---,0.12,VWS V14.01,2013-03-18 18:59:00,
2013-03-18 12:04:00,47.3,39.5,28.56,SSE,167,3.1,6.3,74,0.00,,---,0.12,VWS V14.01,2013-03-18 19:04:00,
2013-03-18 12:09:00,47.3,38.0,28.56,SSE,148,8.1,11.0,70,0.00,,---,0.12,VWS V14.01,2013-03-18 19:09:00,
2013-03-18 12:14:00,47.3,38.0,28.53,SE,128,3.1,5.8,70,0.00,,---,0.12,VWS V14.01,2013-03-18 19:14:00,
2013-03-18 12:19:00,48.0,38.7,28.53,East,94,4.0,5.8,70,0.00,,---,0.12,VWS V14.01,2013-03-18 19:19:00,
2013-03-18 12:24:00,48.4,38.3,28.53,SSW,207,4.9,5.8,68,0.00,,---,0.12,VWS V14.01,2013-03-18 19:24:00,
2013-03-18 12:29:00,48.4,37.2,28.53,SE,140,3.6,5.8,65,0.00,,---,0.12,VWS V14.01,2013-03-18 19:29:00,
2013-03-18 12:34:00,48.6,37.7,28.53,SE,127,6.3,6.3,66,0.00,,---,0.12,VWS V14.01,2013-03-18 19:34:00,
2013-03-18 12:39:00,48.9,38.1,28.53,SSE,166,8.3,10.5,66,0.00,,---,0.12,VWS V14.01,2013-03-18 19:39:00,
2013-03-18 12:44:00,48.2,36.2,28.56,SE,130,2.7,9.6,63,0.00,,---,0.12,VWS V14.01,2013-03-18 19:44:00,
2013-03-18 12:49:00,48.6,37.7,28.56,SE,143,3.6,8.3,66,0.00,,---,0.12,VWS V14.01,2013-03-18 19:49:00,
2013-03-18 12:54:00,49.3,38.0,28.56,South,175,3.6,8.7,65,0.00,,---,0.12,VWS V14.01,2013-03-18 19:54:00,
2013-03-18 12:59:00,50.2,38.9,28.56,SW,214,4.0,7.6,65,0.00,,---,0.12,VWS V14.01,2013-03-18 19:59:00,
2013-03-18 13:04:00,50.5,38.0,28.56,SE,145,2.7,6.3,62,0.00,,---,0.12,VWS V14.01,2013-03-18 20:04:00,
2013-03-18 13:09:00,50.0,35.8,28.56,SSE,160,5.4,12.8,58,0.00,,---,0.12,VWS V14.01,2013-03-18 20:09:00,
2013-03-18 13:14:00,49.6,37.2,28.56,SSE,147,4.9,6.3,62,0.00,,---,0.12,VWS V14.01,2013-03-18 20:14:00,
2013-03-18 13:19:00,49.8,38.2,28.56,SE,130,4.0,10.1,64,0.00,,---,0.12,VWS V14.01,2013-03-18 20:19:00,
2013-03-18 13:24:00,50.0,36.7,28.56,SSE,166,3.1,5.4,60,0.00,,---,0.12,VWS V14.01,2013-03-18 20:24:00,
2013-03-18 13:29:00,50.4,37.0,28.56,SSE,160,5.8,9.6,60,0.00,,---,0.12,VWS V14.01,2013-03-18 20:29:00,
2013-03-18 13:34:00,49.6,35.5,28.56,SSE,157,8.7,8.7,58,0.00,,---,0.12,VWS V14.01,2013-03-18 20:34:00,
2013-03-18 13:39:00,49.8,35.7,28.56,SSE,161,3.6,8.1,58,0.00,,---,0.12,VWS V14.01,2013-03-18 20:39:00,
2013-03-18 13:44:00,49.5,34.0,28.56,ESE,103,4.9,7.6,55,0.00,,---,0.12,VWS V14.01,2013-03-18 20:44:00,
2013-03-18 13:49:00,49.1,35.0,28.56,South,177,0.0,6.3,58,0.00,,---,0.12,VWS V14.01,2013-03-18 20:49:00,
2013-03-18 13:54:00,49.1,35.8,28.56,SE,143,2.7,8.1,60,0.00,,---,0.12,VWS V14.01,2013-03-18 20:54:00,
2013-03-18 13:59:00,50.2,36.4,28.56,SSE,147,4.0,8.7,59,0.00,,---,0.12,VWS V14.01,2013-03-18 20:59:00,
2013-03-18 14:04:00,51.1,36.8,28.56,East,88,4.0,7.2,58,0.00,,---,0.12,VWS V14.01,2013-03-18 21:04:00,
2013-03-18 14:09:00,51.6,38.2,28.56,SE,129,5.4,8.1,60,0.00,,---,0.12,VWS V14.01,2013-03-18 21:09:00,
2013-03-18 14:14:00,52.2,35.6,28.56,SSE,165,2.7,6.3,53,0.00,,---,0.12,VWS V14.01,2013-03-18 21:14:00,
2013-03-18 14:19:00,53.1,37.8,28.56,East,80,2.7,4.0,56,0.00,,---,0.12,VWS V14.01,2013-03-18 21:19:00,
2013-03-18 14:24:00,53.6,35.4,28.56,South,188,5.8,8.3,50,0.00,,---,0.12,VWS V14.01,2013-03-18 21:24:00,
2013-03-18 14:29:00,53.1,33.9,28.56,South,169,5.8,8.1,48,0.00,,---,0.12,VWS V14.01,2013-03-18 21:29:00,
2013-03-18 14:34:00,53.8,36.1,28.56,ENE,77,2.2,6.3,51,0.00,,---,0.12,VWS V14.01,2013-03-18 21:34:00,
2013-03-18 14:39:00,52.9,33.7,28.56,SSE,154,3.1,8.3,48,0.00,,---,0.12,VWS V14.01,2013-03-18 21:39:00,
2013-03-18 14:44:00,52.3,33.8,28.56,SSE,167,5.4,5.8,49,0.00,,---,0.12,VWS V14.01,2013-03-18 21:44:00,
2013-03-18 14:49:00,51.8,32.8,28.56,South,172,3.6,5.4,48,0.00,,---,0.12,VWS V14.01,2013-03-18 21:49:00,
2013-03-18 14:54:00,51.8,32.8,28.56,SSE,153,5.4,5.4,48,0.00,,---,0.12,VWS V14.01,2013-03-18 21:54:00,
2013-03-18 14:59:00,51.8,32.8,28.56,SSE,155,0.0,8.1,48,0.00,,---,0.12,VWS V14.01,2013-03-18 21:59:00,
2013-03-18 15:04:00,52.0,33.4,28.56,SSE,154,5.4,7.6,49,0.00,,---,0.12,VWS V14.01,2013-03-18 22:04:00,
2013-03-18 15:09:00,52.7,35.6,28.56,SSE,151,2.7,5.8,52,0.00,,---,0.12,VWS V14.01,2013-03-18 22:09:00,
2013-03-18 15:14:00,53.4,34.8,28.56,South,175,7.2,7.2,49,0.00,,---,0.12,VWS V14.01,2013-03-18 22:14:00,
2013-03-18 15:19:00,53.2,34.6,28.56,SE,134,5.4,7.6,49,0.00,,---,0.12,VWS V14.01,2013-03-18 22:19:00,
2013-03-18 15:24:00,53.1,32.8,28.56,SSW,192,0.0,5.4,46,0.00,,---,0.12,VWS V14.01,2013-03-18 22:24:00,
2013-03-18 15:29:00,54.1,34.9,28.56,SSE,158,3.1,4.9,48,0.00,,---,0.12,VWS V14.01,2013-03-18 22:29:00,
2013-03-18 15:34:00,54.0,33.1,28.56,SSE,157,6.3,8.7,45,0.00,,---,0.12,VWS V14.01,2013-03-18 22:34:00,
2013-03-18 15:39:00,54.3,32.9,28.56,SSW,194,5.4,6.7,44,0.00,,---,0.12,VWS V14.01,2013-03-18 22:39:00,
2013-03-18 15:44:00,54.1,33.3,28.53,South,170,3.6,12.8,45,0.00,,---,0.12,VWS V14.01,2013-03-18 22:44:00,
2013-03-18 15:49:00,53.6,33.3,28.53,South,175,8.7,9.6,46,0.00,,---,0.12,VWS V14.01,2013-03-18 22:49:00,
2013-03-18 15:54:00,53.2,31.9,28.53,SSE,153,4.9,6.3,44,0.00,,---,0.12,VWS V14.01,2013-03-18 22:54:00,
2013-03-18 15:59:00,54.0,33.7,28.53,SSW,213,3.6,8.7,46,0.00,,---,0.12,VWS V14.01,2013-03-18 22:59:00,
2013-03-18 16:04:00,54.1,32.2,28.53,SSE,157,3.6,5.8,43,0.00,,---,0.12,VWS V14.01,2013-03-18 23:04:00,
2013-03-18 16:09:00,54.5,32.5,28.53,SSW,200,4.0,6.3,43,0.00,,---,0.12,VWS V14.01,2013-03-18 23:09:00,
2013-03-18 16:14:00,54.3,30.5,28.56,South,186,7.6,7.6,40,0.00,,---,0.12,VWS V14.01,2013-03-18 23:14:00,
2013-03-18 16:19:00,54.1,31.6,28.56,SSE,149,3.6,6.3,42,0.00,,---,0.12,VWS V14.01,2013-03-18 23:19:00,
2013-03-18 16:24:00,54.3,30.5,28.56,SSE,161,5.4,7.6,40,0.00,,---,0.12,VWS V14.01,2013-03-18 23:24:00,
2013-03-18 16:29:00,54.1,30.4,28.56,SSW,209,6.3,6.3,40,0.00,,---,0.12,VWS V14.01,2013-03-18 23:29:00,
2013-03-18 16:34:00,54.1,31.0,28.56,SSW,196,4.0,4.9,41,0.00,,---,0.12,VWS V14.01,2013-03-18 23:34:00,
2013-03-18 16:39:00,54.3,30.5,28.56,SSW,199,2.7,5.8,40,0.00,,---,0.12,VWS V14.01,2013-03-18 23:39:00,
2013-03-18 16:44:00,55.0,31.8,28.56,SSW,195,2.7,3.1,41,0.00,,---,0.12,VWS V14.01,2013-03-18 23:44:00,
2013-03-18 16:49:00,54.5,30.1,28.56,SSW,192,0.0,2.7,39,0.00,,---,0.12,VWS V14.01,2013-03-18 23:49:00,
2013-03-18 16:54:00,54.1,30.4,28.56,SE,140,5.8,8.1,40,0.00,,---,0.12,VWS V14.01,2013-03-18 23:54:00,
2013-03-18 16:59:00,54.3,31.1,28.56,SE,135,4.9,6.3,41,0.00,,---,0.12,VWS V14.01,2013-03-18 23:59:00,
2013-03-18 17:04:00,54.0,30.2,28.56,SW,214,3.1,6.3,40,0.00,,---,0.12,VWS V14.01,2013-03-19 00:04:00,
2013-03-18 17:09:00,53.4,30.3,28.56,SSW,198,3.1,5.8,41,0.00,,---,0.12,VWS V14.01,2013-03-19 00:09:00,
2013-03-18 17:14:00,52.7,29.1,28.53,SSW,201,0.0,6.3,40,0.00,,---,0.12,VWS V14.01,2013-03-19 00:14:00,
2013-03-18 17:19:00,52.0,28.4,28.53,SSW,205,6.7,6.7,40,0.00,,---,0.12,VWS V14.01,2013-03-19 00:19:00,
2013-03-18 17:24:00,51.6,29.3,28.53,SW,216,3.1,4.0,42,0.00,,---,0.12,VWS V14.01,2013-03-19 00:24:00,
2013-03-18 17:29:00,51.4,29.1,28.53,WSW,249,4.0,4.0,42,0.00,,---,0.12,VWS V14.01,2013-03-19 00:29:00,
2013-03-18 17:34:00,50.9,28.6,28.53,SSW,201,0.0,5.4,42,0.00,,---,0.12,VWS V14.01,2013-03-19 00:34:00,
2013-03-18 17:39:00,50.7,29.1,28.53,SSW,199,0.0,0.0,43,0.00,,---,0.12,VWS V14.01,2013-03-19 00:39:00,
2013-03-18 17:44:00,50.9,31.4,28.53,SSW,192,3.1,3.6,47,0.00,,---,0.12,VWS V14.01,2013-03-19 00:44:00,
2013-03-18 17:49:00,50.7,30.2,28.53,SSW,192,0.0,0.0,45,0.00,,---,0.12,VWS V14.01,2013-03-19 00:49:00,
2013-03-18 17:54:00,50.2,28.0,28.53,WSW,250,2.7,5.4,42,0.00,,---,0.12,VWS V14.01,2013-03-19 00:54:00,
2013-03-18 17:59:00,49.5,27.9,28.53,WSW,252,2.7,3.6,43,0.00,,---,0.12,VWS V14.01,2013-03-19 00:59:00,
2013-03-18 18:04:00,48.6,27.1,28.53,WSW,252,0.0,0.0,43,0.00,,---,0.12,VWS V14.01,2013-03-19 01:04:00,
2013-03-18 18:09:00,48.7,29.4,28.53,SW,216,2.7,2.7,47,0.00,,---,0.12,VWS V14.01,2013-03-19 01:09:00,
2013-03-18 18:14:00,48.7,29.4,28.53,SW,214,0.0,0.0,47,0.00,,---,0.12,VWS V14.01,2013-03-19 01:14:00,
2013-03-18 18:19:00,48.6,29.3,28.53,SW,214,0.0,0.0,47,0.00,,---,0.12,VWS V14.01,2013-03-19 01:19:00,
2013-03-18 18:24:00,48.2,30.0,28.53,SW,214,0.0,0.0,49,0.00,,---,0.12,VWS V14.01,2013-03-19 01:24:00,
2013-03-18 18:29:00,47.3,29.1,28.53,SW,214,0.0,2.2,49,0.00,,---,0.12,VWS V14.01,2013-03-19 01:29:00,
2013-03-18 18:34:00,47.3,29.6,28.53,SW,214,0.0,0.0,50,0.00,,---,0.12,VWS V14.01,2013-03-19 01:34:00,
2013-03-18 18:39:00,47.1,29.5,28.53,SW,214,0.0,0.0,50,0.00,,---,0.12,VWS V14.01,2013-03-19 01:39:00,
2013-03-18 18:44:00,46.6,29.0,28.53,SW,214,0.0,0.0,50,0.00,,---,0.12,VWS V14.01,2013-03-19 01:44:00,
2013-03-18 18:49:00,46.0,28.9,28.53,SW,214,0.0,0.0,51,0.00,,---,0.12,VWS V14.01,2013-03-19 01:49:00,
2013-03-18 18:54:00,45.3,29.7,28.53,SW,214,0.0,4.0,54,0.00,,---,0.12,VWS V14.01,2013-03-19 01:54:00,
2013-03-18 18:59:00,44.4,28.8,28.53,SW,214,0.0,0.0,54,0.00,,---,0.12,VWS V14.01,2013-03-19 01:59:00,
2013-03-18 19:04:00,43.7,28.6,28.53,SW,214,0.0,0.0,55,0.00,,---,0.12,VWS V14.01,2013-03-19 02:04:00,
2013-03-18 19:09:00,43.3,29.1,28.53,South,187,3.6,4.9,57,0.00,,---,0.12,VWS V14.01,2013-03-19 02:09:00,
2013-03-18 19:14:00,42.8,29.1,28.53,South,187,0.0,0.0,58,0.00,,---,0.12,VWS V14.01,2013-03-19 02:14:00,
2013-03-18 19:19:00,42.3,28.5,28.53,South,187,0.0,0.0,58,0.00,,---,0.12,VWS V14.01,2013-03-19 02:19:00,
2013-03-18 19:24:00,41.5,27.5,28.53,South,187,0.0,0.0,57,0.00,,---,0.12,VWS V14.01,2013-03-19 02:24:00,
2013-03-18 19:29:00,41.0,27.0,28.53,South,187,0.0,0.0,57,0.00,,---,0.12,VWS V14.01,2013-03-19 02:29:00,
2013-03-18 19:34:00,40.6,27.0,28.53,South,187,0.0,0.0,58,0.00,,---,0.12,VWS V14.01,2013-03-19 02:34:00,
2013-03-18 19:39:00,40.1,27.4,28.53,South,187,0.0,0.0,60,0.00,,---,0.12,VWS V14.01,2013-03-19 02:39:00,
2013-03-18 19:44:00,39.4,26.7,28.53,South,187,0.0,0.0,60,0.00,,---,0.12,VWS V14.01,2013-03-19 02:44:00,
2013-03-18 19:49:00,38.8,26.6,28.53,South,187,0.0,0.0,61,0.00,,---,0.12,VWS V14.01,2013-03-19 02:49:00,
2013-03-18 19:54:00,38.5,25.8,28.53,South,187,0.0,0.0,60,0.00,,---,0.12,VWS V14.01,2013-03-19 02:54:00,
2013-03-18 19:59:00,38.1,25.9,28.53,South,187,0.0,0.0,61,0.00,,---,0.12,VWS V14.01,2013-03-19 02:59:00,
2013-03-18 20:04:00,37.8,25.5,28.53,South,187,0.0,0.0,61,0.00,,---,0.12,VWS V14.01,2013-03-19 03:04:00,
2013-03-18 20:09:00,37.6,25.8,28.53,South,187,0.0,0.0,62,0.00,,---,0.12,VWS V14.01,2013-03-19 03:09:00,
2013-03-18 20:14:00,37.6,25.8,28.56,South,187,0.0,0.0,62,0.00,,---,0.12,VWS V14.01,2013-03-19 03:14:00,
2013-03-18 20:19:00,37.6,25.8,28.56,South,187,0.0,0.0,62,0.00,,---,0.12,VWS V14.01,2013-03-19 03:19:00,
2013-03-18 20:24:00,36.7,25.3,28.56,South,187,0.0,0.0,63,0.00,,---,0.12,VWS V14.01,2013-03-19 03:24:00,
2013-03-18 20:29:00,36.3,25.0,28.56,South,187,0.0,0.0,63,0.00,,---,0.12,VWS V14.01,2013-03-19 03:29:00,
2013-03-18 20:34:00,36.0,24.6,28.56,South,187,0.0,0.0,63,0.00,,---,0.12,VWS V14.01,2013-03-19 03:34:00,
2013-03-18 20:39:00,36.0,24.6,28.56,South,187,0.0,0.0,63,0.00,,---,0.12,VWS V14.01,2013-03-19 03:39:00,
2013-03-18 20:44:00,35.4,24.5,28.56,South,187,0.0,0.0,64,0.00,,---,0.12,VWS V14.01,2013-03-19 03:44:00,
2013-03-18 20:49:00,35.4,24.8,28.56,South,187,0.0,0.0,65,0.00,,---,0.12,VWS V14.01,2013-03-19 03:49:00,
2013-03-18 20:54:00,35.1,24.5,28.56,South,187,0.0,0.0,65,0.00,,---,0.12,VWS V14.01,2013-03-19 03:54:00,
2013-03-18 20:59:00,34.9,24.3,28.56,South,187,0.0,0.0,65,0.00,,---,0.12,VWS V14.01,2013-03-19 03:59:00,
2013-03-18 21:00:00,34.9,24.3,28.56,South,187,0.0,0.0,65,0.00,,---,0.12,VWS V14.01,2013-03-19 04:00:00,
2013-03-18 21:05:00,34.5,24.7,28.56,South,187,0.0,0.0,67,0.00,,---,0.12,VWS V14.01,2013-03-19 04:05:00,
2013-03-18 21:10:00,34.5,24.7,28.56,South,187,0.0,0.0,67,0.00,,---,0.12,VWS V14.01,2013-03-19 04:10:00,
2013-03-18 21:15:00,34.2,24.4,28.56,South,187,0.0,0.0,67,0.00,,---,0.12,VWS V14.01,2013-03-19 04:15:00,
2013-03-18 21:20:00,34.2,25.1,28.56,South,187,0.0,0.0,69,0.00,,---,0.12,VWS V14.01,2013-03-19 04:20:00,
2013-03-18 21:25:00,33.8,24.7,28.56,South,187,0.0,0.0,69,0.00,,---,0.12,VWS V14.01,2013-03-19 04:25:00,
2013-03-18 21:30:00,33.8,24.7,28.56,South,187,0.0,0.0,69,0.00,,---,0.12,VWS V14.01,2013-03-19 04:30:00,
2013-03-18 21:35:00,33.4,24.7,28.56,South,187,0.0,0.0,70,0.00,,---,0.12,VWS V14.01,2013-03-19 04:35:00,
2013-03-18 21:40:00,33.1,25.0,28.56,South,187,0.0,0.0,72,0.00,,---,0.12,VWS V14.01,2013-03-19 04:40:00,
2013-03-18 21:45:00,33.1,25.0,28.56,South,187,0.0,0.0,72,0.00,,---,0.12,VWS V14.01,2013-03-19 04:45:00,
2013-03-18 21:50:00,32.9,24.9,28.56,South,187,0.0,0.0,72,0.00,,---,0.12,VWS V14.01,2013-03-19 04:50:00,
2013-03-18 21:55:00,32.7,24.7,28.56,South,187,0.0,0.0,72,0.00,,---,0.12,VWS V14.01,2013-03-19 04:55:00,
2013-03-18 22:00:00,32.7,24.7,28.56,South,187,0.0,0.0,72,0.00,,---,0.12,VWS V14.01,2013-03-19 05:00:00,
2013-03-18 22:05:00,32.5,24.5,28.56,South,187,0.0,0.0,72,0.00,,---,0.12,VWS V14.01,2013-03-19 05:05:00,
2013-03-18 22:10:00,32.5,24.5,28.56,South,187,0.0,0.0,72,0.00,,---,0.12,VWS V14.01,2013-03-19 05:10:00,
2013-03-18 22:15:00,32.4,24.4,28.56,South,187,0.0,0.0,72,0.00,,---,0.12,VWS V14.01,2013-03-19 05:15:00,
2013-03-18 22:20:00,32.2,24.2,28.56,South,187,0.0,0.0,72,0.00,,---,0.12,VWS V14.01,2013-03-19 05:20:00,
2013-03-18 22:25:00,32.2,24.2,28.56,South,187,0.0,0.0,72,0.00,,---,0.12,VWS V14.01,2013-03-19 05:25:00,
2013-03-18 22:30:00,31.8,24.2,28.56,South,187,0.0,0.0,73,0.00,,---,0.12,VWS V14.01,2013-03-19 05:30:00,
2013-03-18 22:35:00,31.6,24.0,28.56,South,187,0.0,0.0,73,0.00,,---,0.12,VWS V14.01,2013-03-19 05:35:00,
2013-03-18 22:40:00,31.5,23.8,28.56,South,187,0.0,0.0,73,0.00,,---,0.12,VWS V14.01,2013-03-19 05:40:00,
2013-03-18 22:45:00,31.5,23.8,28.56,South,187,0.0,0.0,73,0.00,,---,0.12,VWS V14.01,2013-03-19 05:45:00,
2013-03-18 22:50:00,31.5,23.8,28.56,South,187,0.0,0.0,73,0.00,,---,0.12,VWS V14.01,2013-03-19 05:50:00,
2013-03-18 22:55:00,31.3,24.0,28.56,South,187,0.0,0.0,74,0.00,,---,0.12,VWS V14.01,2013-03-19 05:55:00,
2013-03-18 23:00:00,31.1,23.8,28.56,South,187,0.0,0.0,74,0.00,,---,0.00,VWS V14.01,2013-03-19 06:00:00,
2013-03-18 23:05:00,30.9,23.6,28.56,South,187,0.0,0.0,74,0.00,,---,0.12,VWS V14.01,2013-03-19 06:05:00,
2013-03-18 23:10:00,30.9,23.6,28.56,South,187,0.0,0.0,74,0.00,,---,0.12,VWS V14.01,2013-03-19 06:10:00,
2013-03-18 23:15:00,30.7,23.5,28.56,South,187,0.0,0.0,74,0.00,,---,0.12,VWS V14.01,2013-03-19 06:15:00,
2013-03-18 23:20:00,30.7,23.5,28.56,South,187,0.0,0.0,74,0.00,,---,0.12,VWS V14.01,2013-03-19 06:20:00,
2013-03-18 23:25:00,30.7,23.8,28.56,South,187,0.0,0.0,75,0.00,,---,0.12,VWS V14.01,2013-03-19 06:25:00,
2013-03-18 23:30:00,30.7,23.8,28.56,South,187,0.0,0.0,75,0.00,,---,0.12,VWS V14.01,2013-03-19 06:30:00,
2013-03-18 23:35:00,30.7,23.8,28.56,South,187,0.0,0.0,75,0.00,,---,0.12,VWS V14.01,2013-03-19 06:35:00,
2013-03-18 23:40:00,30.7,24.1,28.56,South,187,0.0,0.0,76,0.00,,---,0.12,VWS V14.01,2013-03-19 06:40:00,
2013-03-18 23:45:00,30.7,24.1,28.56,South,187,0.0,0.0,76,0.00,,---,0.12,VWS V14.01,2013-03-19 06:45:00,
2013-03-18 23:50:00,30.7,24.4,28.56,South,187,0.0,0.0,77,0.00,,---,0.12,VWS V14.01,2013-03-19 06:50:00,
2013-03-18 23:55:00,30.7,24.4,28.56,South,187,0.0,0.0,77,0.00,,---,0.12,VWS V14.01,2013-03-19 06:55:00,